status,avgMeasuredTime,avgSpeed,extID,medianMeasuredTime,TIMESTAMP,vehicleCount,_id,REPORT_ID
OK,76,36,826,76,2014-08-01T07:55:00,0,20746550,203954
OK,76,36,826,76,2014-08-01T08:00:00,0,20746881,203954
OK,76,36,826,76,2014-08-01T08:05:00,0,20747330,203954
OK,76,36,826,76,2014-08-01T08:10:00,0,20747703,203954
OK,76,36,826,76,2014-08-01T08:15:00,0,20748152,203954
OK,76,36,826,76,2014-08-01T08:20:00,0,20748601,203954
OK,76,36,826,76,2014-08-01T08:25:00,0,20749050,203954
OK,76,36,826,76,2014-08-01T08:30:00,0,20749499,203954
OK,76,36,826,76,2014-08-01T08:35:00,0,20749948,203954
OK,76,36,826,76,2014-08-01T08:40:00,0,20750397,203954
OK,76,36,826,76,2014-08-01T08:45:00,0,20750846,203954
OK,76,36,826,76,2014-08-01T08:50:00,0,20751295,203954
OK,76,36,826,76,2014-08-01T08:55:00,0,20751744,203954
OK,76,36,826,76,2014-08-01T09:00:00,0,20752193,203954
OK,63,44,826,63,2014-08-01T09:05:00,2,20752642,203954
OK,63,44,826,63,2014-08-01T09:10:00,2,20753091,203954
OK,61,45,826,61,2014-08-01T09:15:00,0,20753540,203954
OK,61,45,826,61,2014-08-01T09:20:00,0,20753989,203954
OK,61,45,826,61,2014-08-01T09:25:00,0,20754438,203954
OK,61,45,826,61,2014-08-01T09:30:00,0,20754887,203954
OK,61,45,826,61,2014-08-01T09:35:00,0,20755336,203954
OK,61,45,826,61,2014-08-01T09:40:00,0,20755785,203954
OK,61,45,826,61,2014-08-01T09:45:00,0,20756234,203954
OK,61,45,826,61,2014-08-01T09:50:00,0,20756683,203954
OK,61,45,826,61,2014-08-01T09:55:00,0,20757132,203954
OK,61,45,826,61,2014-08-01T10:00:00,0,20757581,203954
OK,61,45,826,61,2014-08-01T10:05:00,0,20758030,203954
OK,61,45,826,61,2014-08-01T10:10:00,0,20758479,203954
OK,61,45,826,61,2014-08-01T10:15:00,0,20758928,203954
OK,61,45,826,61,2014-08-01T10:20:00,0,20759377,203954
OK,61,45,826,61,2014-08-01T10:25:00,0,20759826,203954
OK,61,45,826,61,2014-08-01T10:30:00,0,20760275,203954
OK,61,45,826,61,2014-08-01T10:35:00,0,20760724,203954
OK,61,45,826,61,2014-08-01T10:40:00,0,20761173,203954
OK,61,45,826,61,2014-08-01T10:45:00,0,20761622,203954
OK,61,45,826,61,2014-08-01T10:50:00,0,20762071,203954
OK,61,45,826,61,2014-08-01T10:55:00,0,20762520,203954
OK,61,45,826,61,2014-08-01T11:00:00,0,20762969,203954
OK,61,45,826,61,2014-08-01T11:05:00,0,20763418,203954
OK,61,45,826,61,2014-08-01T11:10:00,0,20763867,203954
OK,61,45,826,61,2014-08-01T11:15:00,0,20764315,203954
OK,61,45,826,61,2014-08-01T11:20:00,0,20764764,203954
OK,61,45,826,61,2014-08-01T11:25:00,0,20765213,203954
OK,61,45,826,61,2014-08-01T11:30:00,0,20765662,203954
OK,61,45,826,61,2014-08-01T11:35:00,0,20766111,203954
OK,73,38,826,73,2014-08-01T11:40:00,1,20766560,203954
OK,73,38,826,73,2014-08-01T11:45:00,1,20767009,203954
OK,73,38,826,73,2014-08-01T11:50:00,0,20767458,203954
OK,73,38,826,73,2014-08-01T11:55:00,0,20767907,203954
OK,73,38,826,73,2014-08-01T12:00:00,0,20768356,203954
OK,73,38,826,73,2014-08-01T12:05:00,0,20768805,203954
OK,73,38,826,73,2014-08-01T12:10:00,0,20769254,203954
OK,84,33,826,84,2014-08-01T12:15:00,2,20769703,203954
OK,84,33,826,84,2014-08-01T12:20:00,0,20770152,203954
OK,84,33,826,84,2014-08-01T12:25:00,0,20770601,203954
OK,84,33,826,84,2014-08-01T12:30:00,0,20771050,203954
OK,84,33,826,84,2014-08-01T12:35:00,0,20771499,203954
OK,84,33,826,84,2014-08-01T12:40:00,0,20771948,203954
OK,84,33,826,84,2014-08-01T12:45:00,0,20772397,203954
OK,84,33,826,84,2014-08-01T12:50:00,0,20772846,203954
OK,84,33,826,84,2014-08-01T12:55:00,0,20773295,203954
OK,84,33,826,84,2014-08-01T13:00:00,0,20773744,203954
OK,84,33,826,84,2014-08-01T13:05:00,0,20774193,203954
OK,84,33,826,84,2014-08-01T13:10:00,0,20774642,203954
OK,84,33,826,84,2014-08-01T13:15:00,0,20775091,203954
OK,84,33,826,84,2014-08-01T13:20:00,0,20775540,203954
OK,84,33,826,84,2014-08-01T13:25:00,0,20775989,203954
OK,84,33,826,84,2014-08-01T13:30:00,0,20776438,203954
OK,84,33,826,84,2014-08-01T13:35:00,0,20776887,203954
OK,84,33,826,84,2014-08-01T13:40:00,0,20777336,203954
OK,84,33,826,84,2014-08-01T13:45:00,0,20777785,203954
OK,84,33,826,84,2014-08-01T13:50:00,0,20778234,203954
OK,88,31,826,88,2014-08-01T13:55:00,1,20778683,203954
OK,88,31,826,88,2014-08-01T14:00:00,1,20779132,203954
OK,88,31,826,88,2014-08-01T14:05:00,0,20779581,203954
OK,88,31,826,88,2014-08-01T14:10:00,0,20780030,203954
OK,88,31,826,88,2014-08-01T14:15:00,0,20780479,203954
OK,88,31,826,88,2014-08-01T14:20:00,0,20780928,203954
OK,88,31,826,88,2014-08-01T14:25:00,0,20781377,203954
OK,55,50,826,55,2014-08-01T14:30:00,1,20781826,203954
OK,55,50,826,55,2014-08-01T14:35:00,0,20782275,203954
OK,55,50,826,55,2014-08-01T14:40:00,0,20782724,203954
OK,55,50,826,55,2014-08-01T14:45:00,0,20783173,203954
OK,55,50,826,55,2014-08-01T14:50:00,0,20783622,203954
OK,73,38,826,73,2014-08-01T14:55:00,1,20784071,203954
OK,73,38,826,73,2014-08-01T15:00:00,1,20784520,203954
OK,73,38,826,73,2014-08-01T15:05:00,0,20784969,203954
OK,73,38,826,73,2014-08-01T15:10:00,0,20785418,203954
OK,73,38,826,73,2014-08-01T15:15:00,0,20785867,203954
OK,73,38,826,73,2014-08-01T15:20:00,0,20786316,203954
OK,73,38,826,73,2014-08-01T15:25:00,0,20786765,203954
OK,73,38,826,73,2014-08-01T15:30:00,0,20787214,203954
OK,73,38,826,73,2014-08-01T15:35:00,0,20787663,203954
OK,73,38,826,73,2014-08-01T15:40:00,0,20788112,203954
OK,73,38,826,73,2014-08-01T15:45:00,0,20788561,203954
OK,73,38,826,73,2014-08-01T15:50:00,0,20789010,203954
OK,73,38,826,73,2014-08-01T15:55:00,0,20789459,203954
OK,73,38,826,73,2014-08-01T16:00:00,0,20789908,203954
OK,73,38,826,73,2014-08-01T16:05:00,0,20790357,203954
OK,73,38,826,73,2014-08-01T16:10:00,0,20790806,203954
OK,73,38,826,73,2014-08-01T16:15:00,0,20791255,203954
OK,73,38,826,73,2014-08-01T16:20:00,0,20791704,203954
OK,73,38,826,73,2014-08-01T16:25:00,0,20792153,203954
OK,73,38,826,73,2014-08-01T16:30:00,0,20792602,203954
OK,73,38,826,73,2014-08-01T16:35:00,0,20793051,203954
OK,73,38,826,73,2014-08-01T16:40:00,0,20793500,203954
OK,73,38,826,73,2014-08-01T16:45:00,0,20793949,203954
OK,73,38,826,73,2014-08-01T16:50:00,0,20794398,203954
OK,73,38,826,73,2014-08-01T16:55:00,0,20794847,203954
OK,73,38,826,73,2014-08-01T17:00:00,0,20795296,203954
OK,73,38,826,73,2014-08-01T17:05:00,0,20795745,203954
OK,73,38,826,73,2014-08-01T17:10:00,0,20796194,203954
OK,73,38,826,73,2014-08-01T17:15:00,0,20796643,203954
OK,73,38,826,73,2014-08-01T17:20:00,0,20797092,203954
OK,73,38,826,73,2014-08-01T17:25:00,0,20797541,203954
OK,73,38,826,73,2014-08-01T17:30:00,0,20797990,203954
OK,73,38,826,73,2014-08-01T17:35:00,0,20798439,203954
OK,73,38,826,73,2014-08-01T17:40:00,0,20798888,203954
OK,73,38,826,73,2014-08-01T17:45:00,0,20799337,203954
OK,73,38,826,73,2014-08-01T17:50:00,0,20799786,203954
OK,73,38,826,73,2014-08-01T17:55:00,0,20800235,203954
OK,73,38,826,73,2014-08-01T18:00:00,0,20800684,203954
OK,73,38,826,73,2014-08-01T18:05:00,0,20801133,203954
OK,73,38,826,73,2014-08-01T18:10:00,0,20801582,203954
OK,73,38,826,73,2014-08-01T18:15:00,0,20802031,203954
OK,73,38,826,73,2014-08-01T18:20:00,0,20802480,203954
OK,73,38,826,73,2014-08-01T18:25:00,0,20802929,203954
OK,73,38,826,73,2014-08-01T18:30:00,0,20803378,203954
OK,73,38,826,73,2014-08-01T18:35:00,0,20803827,203954
OK,73,38,826,73,2014-08-01T18:40:00,0,20804276,203954
OK,73,38,826,73,2014-08-01T18:45:00,0,20804725,203954
OK,73,38,826,73,2014-08-01T18:50:00,0,20805174,203954
OK,74,37,826,74,2014-08-01T18:55:00,1,20805623,203954
OK,74,37,826,74,2014-08-01T19:00:00,1,20806072,203954
OK,74,37,826,74,2014-08-01T19:05:00,0,20806521,203954
OK,74,37,826,74,2014-08-01T19:10:00,0,20806970,203954
OK,74,37,826,74,2014-08-01T19:15:00,0,20807419,203954
OK,74,37,826,74,2014-08-01T19:20:00,0,20807868,203954
OK,74,37,826,74,2014-08-01T19:25:00,0,20808317,203954
OK,74,37,826,74,2014-08-01T19:30:00,0,20808766,203954
OK,74,37,826,74,2014-08-01T19:35:00,0,20809215,203954
OK,74,37,826,74,2014-08-01T19:40:00,0,20809664,203954
OK,74,37,826,74,2014-08-01T19:45:00,0,20810113,203954
OK,74,37,826,74,2014-08-01T19:50:00,0,20810562,203954
OK,74,37,826,74,2014-08-01T19:55:00,0,20811011,203954
OK,74,37,826,74,2014-08-01T22:00:00,0,20816740,203954
OK,74,37,826,74,2014-08-01T22:05:00,0,20817189,203954
OK,74,37,826,74,2014-08-02T00:00:00,0,20823179,203954
OK,74,37,826,74,2014-08-02T00:05:00,0,20823628,203954
OK,74,37,826,74,2014-08-02T00:10:00,0,20824077,203954
OK,74,37,826,74,2014-08-02T00:15:00,0,20824526,203954
OK,74,37,826,74,2014-08-02T00:20:00,0,20824975,203954
OK,74,37,826,74,2014-08-02T00:25:00,0,20825424,203954
OK,74,37,826,74,2014-08-02T00:30:00,0,20825873,203954
OK,74,37,826,74,2014-08-02T00:35:00,0,20826322,203954
OK,74,37,826,74,2014-08-02T00:40:00,0,20826771,203954
OK,74,37,826,74,2014-08-02T00:45:00,0,20827220,203954
OK,74,37,826,74,2014-08-02T00:50:00,0,20827669,203954
OK,74,37,826,74,2014-08-02T00:55:00,0,20828118,203954
OK,74,37,826,74,2014-08-02T01:00:00,0,20828567,203954
OK,74,37,826,74,2014-08-02T01:05:00,0,20829016,203954
OK,74,37,826,74,2014-08-02T01:10:00,0,20829465,203954
OK,74,37,826,74,2014-08-02T01:15:00,0,20829914,203954
OK,74,37,826,74,2014-08-02T01:20:00,0,20830363,203954
OK,74,37,826,74,2014-08-02T01:25:00,0,20830812,203954
OK,74,37,826,74,2014-08-02T01:30:00,0,20831261,203954
OK,74,37,826,74,2014-08-02T01:35:00,0,20831710,203954
OK,74,37,826,74,2014-08-02T01:40:00,0,20832159,203954
OK,74,37,826,74,2014-08-02T01:45:00,0,20832608,203954
OK,74,37,826,74,2014-08-02T01:50:00,0,20833057,203954
OK,74,37,826,74,2014-08-02T01:55:00,0,20833506,203954
OK,74,37,826,74,2014-08-02T02:00:00,0,20833955,203954
OK,74,37,826,74,2014-08-02T02:05:00,0,20834404,203954
OK,74,37,826,74,2014-08-02T02:10:00,0,20834853,203954
OK,74,37,826,74,2014-08-02T02:15:00,0,20835302,203954
OK,74,37,826,74,2014-08-02T02:20:00,0,20835751,203954
OK,74,37,826,74,2014-08-02T02:25:00,0,20836200,203954
OK,74,37,826,74,2014-08-02T02:30:00,0,20836649,203954
OK,74,37,826,74,2014-08-02T02:35:00,0,20837098,203954
OK,74,37,826,74,2014-08-02T02:40:00,0,20837547,203954
OK,74,37,826,74,2014-08-02T02:45:00,0,20837996,203954
OK,74,37,826,74,2014-08-02T02:50:00,0,20838445,203954
OK,74,37,826,74,2014-08-02T02:55:00,0,20838894,203954
OK,74,37,826,74,2014-08-02T03:00:00,0,20839343,203954
OK,74,37,826,74,2014-08-02T03:05:00,0,20839792,203954
OK,74,37,826,74,2014-08-02T03:10:00,0,20840241,203954
OK,74,37,826,74,2014-08-02T03:15:00,0,20840690,203954
OK,74,37,826,74,2014-08-02T03:20:00,0,20841139,203954
OK,74,37,826,74,2014-08-02T03:25:00,0,20841588,203954
OK,74,37,826,74,2014-08-02T03:30:00,0,20842037,203954
OK,74,37,826,74,2014-08-02T03:35:00,0,20842486,203954
OK,74,37,826,74,2014-08-02T03:40:00,0,20842935,203954
OK,74,37,826,74,2014-08-02T03:45:00,0,20843384,203954
OK,74,37,826,74,2014-08-02T03:50:00,0,20843833,203954
OK,74,37,826,74,2014-08-02T03:55:00,0,20844282,203954
OK,74,37,826,74,2014-08-02T04:20:00,0,20845728,203954
OK,74,37,826,74,2014-08-02T04:25:00,0,20846284,203954
OK,74,37,826,74,2014-08-02T04:35:00,0,20846651,203954
OK,74,37,826,74,2014-08-02T04:45:00,0,20847293,203954
OK,74,37,826,74,2014-08-02T04:50:00,0,20847657,203954
OK,74,37,826,74,2014-08-02T05:40:00,0,20850520,203954
OK,74,37,826,74,2014-08-02T05:50:00,0,20851179,203954
OK,74,37,826,74,2014-08-02T06:00:00,0,20851736,203954
OK,74,37,826,74,2014-08-02T06:05:00,0,20852185,203954
OK,74,37,826,74,2014-08-02T06:10:00,0,20852634,203954
OK,74,37,826,74,2014-08-02T06:15:00,0,20853083,203954
OK,74,37,826,74,2014-08-02T06:20:00,0,20853532,203954
OK,74,37,826,74,2014-08-02T06:25:00,0,20853981,203954
OK,74,37,826,74,2014-08-02T06:30:00,0,20854430,203954
OK,74,37,826,74,2014-08-02T06:35:00,0,20854879,203954
OK,74,37,826,74,2014-08-02T06:40:00,0,20855328,203954
OK,74,37,826,74,2014-08-02T06:45:00,0,20855777,203954
OK,74,37,826,74,2014-08-02T06:50:00,0,20856226,203954
OK,74,37,826,74,2014-08-02T06:55:00,0,20856675,203954
OK,74,37,826,74,2014-08-02T07:00:00,0,20857124,203954
OK,74,37,826,74,2014-08-02T07:05:00,0,20857573,203954
OK,74,37,826,74,2014-08-02T07:10:00,0,20858022,203954
OK,74,37,826,74,2014-08-02T07:15:00,0,20858471,203954
OK,74,37,826,74,2014-08-02T07:20:00,0,20858920,203954
OK,74,37,826,74,2014-08-02T07:25:00,0,20859369,203954
OK,74,37,826,74,2014-08-02T07:30:00,0,20859818,203954
OK,74,37,826,74,2014-08-02T07:35:00,0,20860267,203954
OK,74,37,826,74,2014-08-02T07:40:00,0,20860716,203954
OK,74,37,826,74,2014-08-02T07:45:00,0,20861165,203954
OK,74,37,826,74,2014-08-02T07:50:00,0,20861614,203954
OK,74,37,826,74,2014-08-02T07:55:00,0,20862063,203954
OK,74,37,826,74,2014-08-02T08:00:00,0,20862512,203954
OK,74,37,826,74,2014-08-02T08:05:00,0,20862961,203954
OK,74,37,826,74,2014-08-02T08:10:00,0,20863410,203954
OK,74,37,826,74,2014-08-02T08:15:00,0,20863859,203954
OK,74,37,826,74,2014-08-02T08:20:00,0,20864308,203954
OK,74,37,826,74,2014-08-02T08:25:00,0,20864757,203954
OK,74,37,826,74,2014-08-02T08:30:00,0,20865206,203954
OK,74,37,826,74,2014-08-02T08:35:00,0,20865655,203954
OK,74,37,826,74,2014-08-02T08:40:00,0,20866104,203954
OK,74,37,826,74,2014-08-02T08:45:00,0,20866553,203954
OK,74,37,826,74,2014-08-02T08:50:00,0,20867002,203954
OK,74,37,826,74,2014-08-02T08:55:00,0,20867451,203954
OK,74,37,826,74,2014-08-02T09:00:00,0,20867900,203954
OK,74,37,826,74,2014-08-02T09:05:00,0,20868349,203954
OK,74,37,826,74,2014-08-02T09:10:00,0,20868798,203954
OK,74,37,826,74,2014-08-02T09:15:00,0,20869247,203954
OK,74,37,826,74,2014-08-02T09:20:00,0,20869696,203954
OK,74,37,826,74,2014-08-02T09:25:00,0,20870145,203954
OK,74,37,826,74,2014-08-02T09:30:00,0,20870594,203954
OK,74,37,826,74,2014-08-02T09:35:00,0,20871043,203954
OK,74,37,826,74,2014-08-02T09:40:00,0,20871492,203954
OK,74,37,826,74,2014-08-02T09:45:00,0,20871941,203954
OK,74,37,826,74,2014-08-02T09:50:00,0,20872390,203954
OK,74,37,826,74,2014-08-02T09:55:00,0,20872839,203954
OK,74,37,826,74,2014-08-02T10:00:00,0,20873288,203954
OK,74,37,826,74,2014-08-02T10:05:00,0,20873737,203954
OK,74,37,826,74,2014-08-02T10:10:00,0,20874186,203954
OK,74,37,826,74,2014-08-02T10:15:00,0,20874635,203954
OK,74,37,826,74,2014-08-02T10:20:00,0,20875084,203954
OK,74,37,826,74,2014-08-02T10:25:00,0,20875533,203954
OK,74,37,826,74,2014-08-02T10:30:00,0,20875982,203954
OK,74,37,826,74,2014-08-02T10:35:00,0,20876431,203954
OK,74,37,826,74,2014-08-02T10:40:00,0,20876880,203954
OK,74,37,826,74,2014-08-02T10:45:00,0,20877329,203954
OK,74,37,826,74,2014-08-02T10:50:00,0,20877778,203954
OK,74,37,826,74,2014-08-02T10:55:00,0,20878227,203954
OK,74,37,826,74,2014-08-02T11:00:00,0,20878676,203954
OK,74,37,826,74,2014-08-02T11:05:00,0,20879125,203954
OK,74,37,826,74,2014-08-02T11:10:00,0,20879574,203954
OK,74,37,826,74,2014-08-02T11:15:00,0,20880023,203954
OK,74,37,826,74,2014-08-02T11:20:00,0,20880472,203954
OK,74,37,826,74,2014-08-02T11:25:00,0,20880921,203954
OK,74,37,826,74,2014-08-02T11:30:00,0,20881370,203954
OK,74,37,826,74,2014-08-02T11:35:00,0,20881819,203954
OK,74,37,826,74,2014-08-02T11:40:00,0,20882268,203954
OK,74,37,826,74,2014-08-02T11:45:00,0,20882717,203954
OK,74,37,826,74,2014-08-02T11:50:00,0,20883166,203954
OK,74,37,826,74,2014-08-02T11:55:00,0,20883615,203954
OK,74,37,826,74,2014-08-02T12:00:00,0,20884064,203954
OK,74,37,826,74,2014-08-02T12:05:00,0,20884513,203954
OK,74,37,826,74,2014-08-02T12:10:00,0,20884962,203954
OK,74,37,826,74,2014-08-02T12:15:00,0,20885411,203954
OK,74,37,826,74,2014-08-02T12:20:00,0,20885860,203954
OK,74,37,826,74,2014-08-02T12:25:00,0,20886309,203954
OK,74,37,826,74,2014-08-02T12:30:00,0,20886758,203954
OK,71,39,826,71,2014-08-02T12:35:00,2,20887207,203954
OK,71,39,826,71,2014-08-02T12:40:00,2,20887656,203954
OK,79,35,826,79,2014-08-02T12:45:00,0,20888105,203954
OK,79,35,826,79,2014-08-02T12:50:00,0,20888554,203954
OK,79,35,826,79,2014-08-02T12:55:00,0,20889003,203954
OK,77,36,826,77,2014-08-02T13:00:00,2,20889452,203954
OK,77,36,826,77,2014-08-02T13:05:00,0,20889901,203954
OK,77,36,826,77,2014-08-02T13:10:00,0,20890350,203954
OK,166,16,826,166,2014-08-02T13:15:00,1,20890799,203954
OK,166,16,826,166,2014-08-02T13:20:00,0,20891248,203954
OK,166,16,826,166,2014-08-02T13:25:00,0,20891697,203954
OK,166,16,826,166,2014-08-02T13:30:00,0,20892146,203954
OK,166,16,826,166,2014-08-02T13:35:00,0,20892595,203954
OK,166,16,826,166,2014-08-02T13:40:00,0,20893044,203954
OK,166,16,826,166,2014-08-02T13:45:00,0,20893493,203954
OK,166,16,826,166,2014-08-02T13:50:00,0,20893942,203954
OK,166,16,826,166,2014-08-02T13:55:00,0,20894391,203954
OK,166,16,826,166,2014-08-02T14:00:00,0,20894840,203954
OK,166,16,826,166,2014-08-02T14:05:00,0,20895289,203954
OK,166,16,826,166,2014-08-02T14:10:00,0,20895738,203954
OK,166,16,826,166,2014-08-02T14:15:00,0,20896187,203954
OK,166,16,826,166,2014-08-02T14:20:00,0,20896636,203954
OK,166,16,826,166,2014-08-02T14:25:00,0,20897085,203954
OK,166,16,826,166,2014-08-02T14:30:00,0,20897534,203954
OK,166,16,826,166,2014-08-02T14:35:00,0,20897983,203954
OK,166,16,826,166,2014-08-02T14:40:00,0,20898432,203954
OK,166,16,826,166,2014-08-02T14:45:00,0,20898881,203954
OK,166,16,826,166,2014-08-02T14:50:00,0,20899330,203954
OK,166,16,826,166,2014-08-02T14:55:00,0,20899779,203954
OK,166,16,826,166,2014-08-02T15:00:00,0,20900228,203954
OK,166,16,826,166,2014-08-02T15:05:00,0,20900677,203954
OK,72,38,826,72,2014-08-02T15:10:00,1,20901126,203954
OK,72,38,826,72,2014-08-02T15:15:00,0,20901575,203954
OK,67,41,826,67,2014-08-02T15:20:00,1,20902024,203954
OK,67,41,826,67,2014-08-02T15:25:00,1,20902473,203954
OK,67,41,826,67,2014-08-02T15:30:00,0,20902922,203954
OK,67,41,826,67,2014-08-02T15:35:00,0,20903371,203954
OK,67,41,826,67,2014-08-02T15:40:00,0,20903820,203954
OK,67,41,826,67,2014-08-02T15:45:00,0,20904269,203954
OK,67,41,826,67,2014-08-02T15:50:00,0,20904718,203954
OK,67,41,826,67,2014-08-02T15:55:00,0,20905167,203954
OK,67,41,826,67,2014-08-02T16:00:00,0,20905616,203954
OK,67,41,826,67,2014-08-02T16:05:00,0,20906065,203954
OK,67,41,826,67,2014-08-02T16:10:00,0,20906514,203954
OK,67,41,826,67,2014-08-02T16:15:00,0,20906963,203954
OK,67,41,826,67,2014-08-02T16:20:00,0,20907412,203954
OK,67,41,826,67,2014-08-02T16:25:00,0,20907861,203954
OK,67,41,826,67,2014-08-02T16:30:00,0,20908310,203954
OK,67,41,826,67,2014-08-02T16:35:00,0,20908759,203954
OK,67,41,826,67,2014-08-02T16:40:00,0,20909208,203954
OK,67,41,826,67,2014-08-02T16:45:00,0,20909657,203954
OK,67,41,826,67,2014-08-02T16:50:00,0,20910106,203954
OK,67,41,826,67,2014-08-02T16:55:00,0,20910555,203954
OK,67,41,826,67,2014-08-02T17:00:00,0,20911004,203954
OK,67,41,826,67,2014-08-02T17:05:00,0,20911453,203954
OK,67,41,826,67,2014-08-02T17:10:00,0,20911902,203954
OK,67,41,826,67,2014-08-02T17:15:00,0,20912351,203954
OK,67,41,826,67,2014-08-02T17:20:00,1,20912800,203954
OK,67,41,826,67,2014-08-02T17:25:00,1,20913249,203954
OK,67,41,826,67,2014-08-02T17:30:00,0,20913698,203954
OK,67,41,826,67,2014-08-02T17:35:00,0,20914147,203954
OK,67,41,826,67,2014-08-02T17:40:00,0,20914596,203954
OK,67,41,826,67,2014-08-02T17:45:00,0,20915045,203954
OK,67,41,826,67,2014-08-02T17:50:00,0,20915494,203954
OK,67,41,826,67,2014-08-02T17:55:00,0,20915943,203954
OK,67,41,826,67,2014-08-02T18:00:00,0,20916392,203954
OK,67,41,826,67,2014-08-02T18:05:00,0,20916841,203954
OK,67,41,826,67,2014-08-02T18:10:00,0,20917290,203954
OK,67,41,826,67,2014-08-02T18:15:00,0,20917739,203954
OK,67,41,826,67,2014-08-02T18:20:00,0,20918188,203954
OK,67,41,826,67,2014-08-02T18:25:00,0,20918637,203954
OK,67,41,826,67,2014-08-02T18:30:00,0,20919086,203954
OK,67,41,826,67,2014-08-02T18:35:00,0,20919535,203954
OK,67,41,826,67,2014-08-02T18:40:00,0,20919984,203954
OK,67,41,826,67,2014-08-02T18:45:00,0,20920433,203954
OK,67,41,826,67,2014-08-02T18:50:00,0,20920882,203954
OK,67,41,826,67,2014-08-02T18:55:00,0,20921331,203954
OK,67,41,826,67,2014-08-02T19:00:00,0,20921780,203954
OK,67,41,826,67,2014-08-02T19:05:00,0,20922229,203954
OK,67,41,826,67,2014-08-02T19:10:00,0,20922678,203954
OK,67,41,826,67,2014-08-02T19:15:00,0,20923127,203954
OK,67,41,826,67,2014-08-02T19:20:00,0,20923576,203954
OK,67,41,826,67,2014-08-02T19:25:00,0,20924025,203954
OK,67,41,826,67,2014-08-02T19:30:00,0,20924474,203954
OK,67,41,826,67,2014-08-02T19:35:00,0,20924923,203954
OK,67,41,826,67,2014-08-02T19:40:00,0,20925372,203954
OK,67,41,826,67,2014-08-02T19:45:00,0,20925821,203954
OK,67,41,826,67,2014-08-02T19:50:00,0,20926270,203954
OK,67,41,826,67,2014-08-02T19:55:00,0,20926719,203954
OK,67,41,826,67,2014-08-02T20:00:00,0,20927168,203954
OK,67,41,826,67,2014-08-02T20:05:00,0,20927617,203954
OK,67,41,826,67,2014-08-02T20:10:00,0,20928066,203954
OK,67,41,826,67,2014-08-02T20:15:00,0,20928515,203954
OK,67,41,826,67,2014-08-02T20:20:00,0,20928964,203954
OK,67,41,826,67,2014-08-02T20:25:00,0,20929413,203954
OK,67,41,826,67,2014-08-02T20:30:00,0,20929862,203954
OK,67,41,826,67,2014-08-02T20:35:00,0,20930311,203954
OK,67,41,826,67,2014-08-02T20:40:00,0,20930760,203954
OK,67,41,826,67,2014-08-02T20:45:00,0,20931209,203954
OK,67,41,826,67,2014-08-02T20:50:00,0,20931658,203954
OK,67,41,826,67,2014-08-02T20:55:00,0,20932107,203954
OK,67,41,826,67,2014-08-02T21:00:00,0,20932556,203954
OK,67,41,826,67,2014-08-02T21:05:00,0,20933005,203954
OK,67,41,826,67,2014-08-02T21:10:00,0,20933454,203954
OK,67,41,826,67,2014-08-02T21:15:00,0,20933903,203954
OK,67,41,826,67,2014-08-02T21:20:00,0,20934352,203954
OK,67,41,826,67,2014-08-02T21:25:00,0,20934801,203954
OK,67,41,826,67,2014-08-02T21:30:00,0,20935250,203954
OK,67,41,826,67,2014-08-02T21:35:00,0,20935699,203954
OK,67,41,826,67,2014-08-02T21:40:00,0,20936148,203954
OK,67,41,826,67,2014-08-02T21:45:00,0,20936597,203954
OK,67,41,826,67,2014-08-02T21:50:00,0,20937046,203954
OK,67,41,826,67,2014-08-02T21:55:00,0,20937495,203954
OK,67,41,826,67,2014-08-02T22:00:00,0,20937944,203954
OK,67,41,826,67,2014-08-02T22:05:00,0,20938393,203954
OK,67,41,826,67,2014-08-02T22:10:00,0,20938842,203954
OK,67,41,826,67,2014-08-02T22:15:00,0,20939291,203954
OK,67,41,826,67,2014-08-02T22:20:00,0,20939740,203954
OK,67,41,826,67,2014-08-02T22:25:00,0,20940189,203954
OK,67,41,826,67,2014-08-02T22:30:00,0,20940638,203954
OK,67,41,826,67,2014-08-02T22:35:00,0,20941087,203954
OK,67,41,826,67,2014-08-02T22:40:00,0,20941536,203954
OK,67,41,826,67,2014-08-02T22:45:00,0,20941985,203954
OK,67,41,826,67,2014-08-02T22:50:00,0,20942434,203954
OK,67,41,826,67,2014-08-02T22:55:00,0,20942883,203954
OK,67,41,826,67,2014-08-02T23:00:00,0,20943332,203954
OK,67,41,826,67,2014-08-02T23:10:00,0,20943781,203954
OK,67,41,826,67,2014-08-02T23:15:00,0,20944230,203954
OK,67,41,826,67,2014-08-02T23:20:00,0,20944679,203954
OK,67,41,826,67,2014-08-02T23:25:00,0,20945128,203954
OK,67,41,826,67,2014-08-02T23:30:00,0,20945577,203954
OK,67,41,826,67,2014-08-02T23:35:00,0,20946026,203954
OK,67,41,826,67,2014-08-02T23:40:00,0,20946475,203954
OK,67,41,826,67,2014-08-02T23:45:00,0,20946924,203954
OK,67,41,826,67,2014-08-02T23:50:00,0,20947373,203954
OK,67,41,826,67,2014-08-02T23:55:00,0,20947822,203954
OK,67,41,826,67,2014-08-03T00:00:00,0,20948271,203954
OK,67,41,826,67,2014-08-03T00:05:00,0,20948720,203954
OK,67,41,826,67,2014-08-03T00:10:00,0,20949168,203954
OK,67,41,826,67,2014-08-03T00:15:00,0,20949617,203954
OK,67,41,826,67,2014-08-03T00:20:00,0,20950066,203954
OK,67,41,826,67,2014-08-03T00:25:00,0,20950515,203954
OK,67,41,826,67,2014-08-03T00:30:00,0,20950964,203954
OK,67,41,826,67,2014-08-03T00:35:00,0,20951413,203954
OK,67,41,826,67,2014-08-03T00:40:00,0,20951862,203954
OK,67,41,826,67,2014-08-03T00:45:00,0,20952311,203954
OK,67,41,826,67,2014-08-03T00:50:00,0,20952760,203954
OK,67,41,826,67,2014-08-03T00:55:00,0,20953209,203954
OK,67,41,826,67,2014-08-03T01:00:00,0,20953658,203954
OK,67,41,826,67,2014-08-03T01:05:00,0,20954107,203954
OK,67,41,826,67,2014-08-03T01:10:00,0,20954556,203954
OK,67,41,826,67,2014-08-03T01:15:00,0,20955005,203954